Location: Brno
(49.2000°N, 16.6330°E)
Time: 23:10:07
(UTC+01:00)

Cosmos 1603 - Visible Passes

Search period start: 31 October 2014 00:00
Search period end: 10 November 2014 00:00
Orbit: 830 x 861 km, 71.0° (Epoch: 31 October)

Date Brightness Start Highest point End Pass type
(mag) Time Alt. Az. Time Alt. Az. Time Alt. Az.
31 Oct 5.8 02:24:54 21° ENE 02:24:54 21° ENE 02:27:35 10° E visible
31 Oct 3.5 04:06:54 65° WNW 04:07:36 73° WSW 04:13:13 10° SSE visible
31 Oct 5.4 05:48:55 11° WNW 05:50:40 12° W 05:52:47 10° WSW visible
31 Oct 5.0 17:15:54 10° SE 17:19:56 20° E 17:23:58 10° NE visible
31 Oct 3.8 18:57:41 10° SSW 19:03:25 77° WNW 19:07:03 24° NNE visible
31 Oct 5.9 20:44:26 10° W 20:48:33 20° NW 20:48:59 20° NNW visible
01 Nov 6.3 02:13:04 13° E 02:13:04 13° E 02:13:42 10° E visible
01 Nov 4.0 03:55:05 53° S 03:55:05 53° S 03:59:24 10° SSE visible
01 Nov 5.4 05:37:06 13° W 05:37:06 13° W 05:39:10 10° WSW visible
01 Nov 5.0 17:02:10 10° SE 17:06:08 20° E 17:10:06 10° NE visible
01 Nov 3.8 18:43:51 10° SSW 18:49:36 79° WNW 18:54:08 17° NNE visible
01 Nov 5.9 20:30:32 10° W 20:34:42 20° NW 20:36:04 19° NNW visible
02 Nov 5.2 03:43:18 25° SSE 03:43:18 25° SSE 03:45:35 10° SSE visible
02 Nov 5.6 05:25:19 10° WSW 05:25:19 10° WSW 05:25:31 10° WSW visible
02 Nov 3.8 18:30:01 10° SSW 18:35:46 80° WNW 18:41:04 13° NNE visible
02 Nov 5.9 20:16:38 10° W 20:20:51 21° NW 20:22:59 17° N visible
03 Nov 6.1 03:31:30 11° SSE 03:31:30 11° SSE 03:31:46 10° SSE visible
03 Nov 3.8 18:16:11 10° SSW 18:21:56 82° WNW 18:27:44 10° NNE visible
03 Nov 5.9 20:02:44 10° W 20:07:00 21° NW 20:09:48 15° N visible
04 Nov 3.8 18:02:21 10° SSW 18:08:07 84° WNW 18:13:54 10° NNE visible
04 Nov 5.9 19:48:50 10° W 19:53:08 21° NW 19:56:31 13° N visible
05 Nov 3.8 17:48:32 10° SSW 17:54:17 86° WNW 18:00:04 10° NNE visible
05 Nov 5.9 19:34:56 10° W 19:39:17 22° NW 19:43:10 12° N visible
06 Nov 3.8 17:34:42 10° SSW 17:40:27 88° WNW 17:46:15 10° NNE visible
06 Nov 5.8 19:21:03 10° W 19:25:26 22° NW 19:29:46 10° N visible
07 Nov 3.8 17:20:52 10° SSW 17:26:38 90° ESE 17:32:25 10° NNE visible
07 Nov 5.8 19:07:09 10° W 19:11:35 22° NW 19:16:01 10° N visible
08 Nov 3.8 17:07:03 10° SSW 17:12:48 88° ESE 17:18:35 10° NNE visible
08 Nov 5.8 18:53:15 10° W 18:57:43 23° NW 19:02:12 10° N visible
09 Nov 3.8 16:53:13 10° SSW 16:58:58 86° ESE 17:04:45 10° NNE visible
09 Nov 5.8 18:39:21 10° W 18:43:52 23° NW 18:48:24 10° N visible
